OPS 4682 DEB, 38428

Orbit data source: Space-Track

OPS 4682 DEB, 38428 is space debris in LEO originally from a launch on Sat, 03 Apr 1965 UTC launched from the Air Force Western Test Range (AFWTR). Debris objects in space refer to the collection of defunct objects orbiting the Earth. Examples of debris include non-operational satellites, rocket bodies, and fragments generated from explosions, collisions, or faulty payload assembly.

Loading next visibility...
Identifier
38428, 1965-027EH
Orbit
LEO
Country
Flag of USUS
Related business
Manufacturer
Unknown
Mission
Spacecraft
Bus & Motor
Unknown
Mass
Unknown
Launch date (UTC)
1965-04-03 (61 years ago)
Launch vehicle
Unknown
Launch site
Air Force Western Test Range (AFWTR)
Object type
Payload
Rocket body
Debris
Shape & HBR
Unknown shape, 0.1 m
Radar Cross Section
Small (<0.1 m²)

Expand to show TLE details & history
Last TLE update: 4 days ago

TLE from 4 days ago
0 OPS 4682 DEB
1 38428U 65027EH  26131.10754130  .00000361  00000-0  12113-2 0  9999
2 38428  90.2462  12.5090 0042964 153.3231 207.0113 12.97484231593103
Epoch: 2026-05-11T02:34Z
TLE epoch observation values (Epoch: 2026-05-11T02:34:51.568Z)
Latitude
-0°
Longitude
104.89312°
Altitude
1,304.157 km
Speed
7.191 km/s
True Right ascension
00h 50m 02s
True Declination
0° 00' 00"
Sunlit
Object was in daylight at epoch
Visualization orbit readout
Latitude
Unknown
Longitude
Unknown
Altitude
Unknown
Speed
Unknown
Apparent Right ascension
Unknown
Apparent Declination
Unknown
Sunlit
N/A
Visualization observer readout
Local Sidereal Time
18:43:00
Azimuth
Unknown
Elevation
Unknown
Doppler factor
Unknown
Orbital elements
Apogee altitude
1,301.946 km
Perigee altitude
1,236.235 km
Semi-major axis
7,647.227 km
Eccentricity
0.0043
Inclination
90.2462°
RAAN
12.509°
Arg. of periapsis
153.3231°
True anomaly
206.78877°
Mean anomaly
207.0113°
Eccentric anomaly
206.89993°
Mean motion
3.24554 °/min
Orbital period
110.92 mins
BSTAR
0.0012113
Loading maneuver chart data...
Computing Atmospheric mass density...
Loading historical data...
Loading historical data...
Loading historical data...
Loading historical data...
Loading historical data...
Loading historical data...
Loading historical data...

Documentation

Showing up to 5 results
|